Location: Goettingen
(51.5300°N, 9.9433°E)
Time: 10:12:34
(UTC+01:00)

ISS - Pass Details

Date: 28 March 2023
Orbit: 414 x 423 km, 51.6° (Epoch: 20 March)

Event Time Altitude Azimuth Distance (km) Brightness Sun altitude
Rises 21:17:58 0° 284° (WNW) 2,360 1.8 -14.5°
Reaches altitude 10° 21:20:07 10° 278° (W) 1,494 0.3 -14.8°
Maximum altitude 21:23:20 45° 204° (SSW) 580 -3.1 -15.3°
Enters shadow 21:24:31 30° 153° (SSE) 768 -2.9 -15.4°
